TIME,PRES,T(CTD),SAL,OXYGEN,RAWTEMP,T(OPTODE),TCPHASE,CHECK
1342175916,323.1300048828125000,17.7600002288818360,36.5000000000000000,219.8840942382812500,266.3364868164062500,17.7781200408935550,31.4517498016357420,43441
1342175983,317.5000000000000000,17.8124008178710940,36.5065994262695300,217.7778015136718800,264.9619140625000000,17.8202991485595700,31.5437507629394530,41757
1342176056,311.6300048828125000,17.9340991973876950,36.5359992980957000,220.2198028564453000,260.9851074218750000,17.9423198699951170,31.3603401184082030,4965
1342176128,305.9500122070312500,17.9860000610351560,36.5469017028808600,221.8195037841797000,259.2485961914062500,17.9955997467041000,31.2529392242431640,57538
1342176210,299.5100097656250000,18.0146007537841800,36.5475006103515600,221.0290069580078000,258.7406921386719000,18.0111808776855470,31.2872390747070300,63985
1342176282,293.6199951171875000,17.9757995605468750,36.5316009521484400,215.8047943115234400,259.4776000976562500,17.9885692596435550,31.5723896026611330,62755
1342176355,287.6600036621094000,18.0622005462646500,36.5423011779785160,214.0563964843750000,256.8411865234375000,18.0694599151611330,31.6293697357177730,27737
1342176427,281.6099853515625000,18.1011009216308600,36.5511016845703100,215.0402984619140600,255.4624938964843800,18.1117591857910160,31.5576591491699220,64582
1342176523,272.8599853515625000,18.1935005187988280,36.5634002685546900,215.3773040771484400,252.4273986816406200,18.2048606872558600,31.4975891113281250,19966
1342176588,265.9100036621094000,18.2420005798339840,36.5689010620117200,215.1210021972656200,250.9443054199218800,18.2503509521484380,31.4907798767089840,14227
1342176666,257.6400146484375000,18.2812995910644530,36.5713996887207000,214.3206939697265600,249.6770019531250000,18.2892303466796880,31.5162391662597660,18805
1342176728,251.5599975585937500,18.3166999816894530,36.5694999694824200,213.1585998535156200,248.5596008300781200,18.3234996795654300,31.5632801055908200,12217
1342176804,244.8899993896484400,18.3631992340087900,36.5769996643066400,212.3385925292968800,246.9978027343750000,18.3714103698730470,31.5861892700195300,52952
1342176889,238.7500000000000000,18.3901004791259770,36.5774993896484400,212.1100006103515600,246.1461944580078000,18.3975296020507800,31.5867900848388670,58611
1342176994,230.3699951171875000,18.4757995605468750,36.5881996154785160,212.3831939697265600,243.3479003906250000,18.4833507537841800,31.5332908630371100,37300
1342177059,224.2799987792968800,18.5366992950439450,36.5978012084960940,210.7794952392578000,241.3948059082031200,18.5432491302490230,31.5939292907714840,37519
1342177122,218.3899993896484400,18.5608997344970700,36.5979003906250000,210.1517944335937500,240.5655059814453000,18.5686893463134770,31.6167793273925780,4762
1342177188,212.3099975585937500,18.5872001647949220,36.5920982360839840,209.4597015380859400,239.3027038574218800,18.6074199676513670,31.6371898651123050,64184
1342177251,206.6600036621093800,18.6347007751464840,36.5980987548828100,208.5063018798828000,238.2189025878906200,18.6406593322753900,31.6749305725097660,55111
1342177325,200.1000061035156200,18.6823997497558600,36.5932006835937500,209.2521057128906200,236.6730041503906200,18.6880702972412100,31.6126899719238280,48110
1342177388,194.7400054931640600,18.6923999786376950,36.5817985534668000,212.1502075195312500,236.2911071777343800,18.6997795104980470,31.4490699768066400,6195
1342177463,188.5800018310547000,18.7028999328613280,36.5610008239746100,222.8206024169922000,235.9593048095703000,18.7099609375000000,30.8831291198730470,4268
1342177535,182.6699981689453000,18.7397994995117200,36.5652999877929700,224.9477996826172000,234.6009063720703000,18.7516193389892580,30.7565708160400400,22145
1342177610,176.7400054931640600,18.8913993835449220,36.5829010009765600,222.2639007568359400,229.9822998046875000,18.8932590484619140,30.8304100036621100,63504
1342177692,170.5200042724609400,18.9134006500244140,36.5602989196777340,215.3123931884765600,228.9293060302734400,18.9255504608154300,31.1784191131591800,27750
1342177769,164.1499938964843800,18.9207000732421880,36.5311012268066400,220.7864990234375000,228.4718017578125000,18.9395809173584000,30.8860206604003900,57116
1342177834,158.0299987792968800,18.9477996826171880,36.5273017883300800,223.9696960449218800,227.9046020507812500,18.9569702148437500,30.7153396606445300,12100
1342177900,151.7500000000000000,18.9699001312255860,36.5293998718261700,225.7640991210937500,227.0223999023437500,18.9840297698974600,30.6129703521728500,13943
1342177953,146.5700073242187500,19.0203990936279300,36.5292015075683600,224.9257965087890600,225.5204925537109400,19.0300903320312500,30.6350593566894530,50036
1342178019,140.2599945068359400,19.0587997436523440,36.5214004516601560,225.1560974121093800,224.0941009521484400,19.0738296508789060,30.6040706634521500,54700
1342178082,134.1499938964843800,19.0928993225097660,36.5208015441894500,230.2230987548828000,223.2285003662109400,19.1003704071044920,30.3410701751709000,29238
1342178147,127.7300033569336000,19.1602001190185550,36.5295982360839840,231.5323944091797000,220.8112945556640600,19.1745090484619140,30.2447891235351560,11018
1342178201,122.3600006103515600,19.2187995910644530,36.5421981811523440,232.0944976806640600,218.7250976562500000,19.2384891510009770,30.1898097991943360,54543
1342178266,115.6900024414062500,19.4288997650146500,36.5867004394531250,236.3632049560547000,212.6519012451172000,19.4247398376464840,29.9047203063964840,33245
1342178320,110.0599975585937500,19.4528999328613280,36.5913009643554700,237.9954986572265600,211.3410034179687500,19.4649505615234380,29.8106098175048830,62617
1342178407,101.6100006103515600,19.5578002929687500,36.6001014709472660,239.4591064453125000,208.0252990722656200,19.5666503906250000,29.6985206604003900,722
1342178479,95.7099990844726600,19.6016998291015620,36.6018981933593750,240.4888000488281200,206.6363067626953000,19.6092491149902340,29.6324501037597660,8234
1342178554,90.1399993896484400,19.6643009185791000,36.6085014343261700,242.2402038574218800,204.6884002685547000,19.6690006256103500,29.5262298583984380,16179
1342178740,75.4599990844726600,19.7605991363525400,36.5820007324218750,240.6499023437500000,201.2467041015625000,19.7745704650878900,29.5544395446777340,9039
1342178805,69.3099975585937500,19.9610004425048830,36.5984001159668000,236.1100006103515600,194.9617004394531200,19.9673805236816400,29.6837196350097660,54744
1342178868,63.4799995422363300,20.0851993560791000,36.5858993530273440,245.5543060302734400,190.3966979980468800,20.1074504852294920,29.1895599365234380,35767
1342178934,57.8499984741210940,20.4918994903564450,36.5998992919921900,253.4992980957031200,177.8670959472656200,20.4920101165771500,28.6785793304443360,38604
1342179015,51.4199981689453100,20.6270008087158200,36.5864982604980500,258.2268066406250000,173.3668975830078000,20.6301708221435550,28.4198398590087900,53424
1342179090,45.7299995422363300,21.0009994506835940,36.5858001708984400,258.8132934570312500,161.4069061279297000,20.9975109100341800,28.2437591552734380,17262
1342179172,39.8100013732910160,21.6354007720947270,36.5550003051757800,256.3356018066406000,142.2245025634765600,21.5872192382812500,28.1063499450683600,36610
1342179279,32.2999992370605500,22.7427997589111330,36.5178985595703100,252.3560028076172000,107.0310974121093800,22.6714000701904300,27.8359603881835940,8437
